AVA1526 MROC-MPTO

Flight info

Callsign AVA1526
Flight time N/A
Altitude 33000
Route TEJAR3M LIO UA317 BUFEO DCT BITOR VUMAN2C
Aircraft A320/M-SDE3FGHIRWY/LB1

Departure

Time 2026-05-01 14:12
Airport Juan Santamaría International Airport (MROC)

Arrival

Time N/A
Airport Tocumen International Airport (MPTO)
Time Latitude Longitude Altitude Speed Heading
2026-05-01 14:03 9.99740 -84.20384 3034 ft 0 kts 339°
2026-05-01 14:04 9.99738 -84.20384 3034 ft 2 kts 339°
2026-05-01 14:04 9.99725 -84.20378 3037 ft 2 kts 340°
2026-05-01 14:05 9.99709 -84.20373 3037 ft 2 kts 340°
2026-05-01 14:05 9.99694 -84.20366 3036 ft 2 kts 314°
2026-05-01 14:05 9.99687 -84.20352 3035 ft 2 kts 257°
2026-05-01 14:05 9.99688 -84.20348 3035 ft 0 kts 252°
2026-05-01 14:09 9.99651 -84.20446 3034 ft 29 kts 249°
2026-05-01 14:09 9.99560 -84.20687 3036 ft 39 kts 249°
2026-05-01 14:09 9.99466 -84.20948 3031 ft 41 kts 249°
2026-05-01 14:09 9.99352 -84.21238 3002 ft 46 kts 249°
2026-05-01 14:10 9.99233 -84.21557 2978 ft 50 kts 248°
2026-05-01 14:10 9.99113 -84.21885 2961 ft 42 kts 250°
2026-05-01 14:10 9.99070 -84.22161 2941 ft 36 kts 234°
2026-05-01 14:10 9.98924 -84.22159 2947 ft 15 kts 118°
2026-05-01 14:11 9.98943 -84.22082 2949 ft 15 kts 71°
2026-05-01 14:11 9.99277 -84.21184 3002 ft 127 kts 69°
2026-05-01 14:11 9.99649 -84.20198 3106 ft 165 kts 72°
2026-05-01 14:12 10.00057 -84.19124 3843 ft 162 kts 68°
2026-05-01 14:12 10.00475 -84.18047 4632 ft 165 kts 66°
2026-05-01 14:12 10.00936 -84.16932 4937 ft 183 kts 65°
2026-05-01 14:12 10.01462 -84.15669 5125 ft 207 kts 68°
2026-05-01 14:13 10.02021 -84.14278 5447 ft 222 kts 66°
2026-05-01 14:13 10.02390 -84.13291 5864 ft 223 kts 76°
2026-05-01 14:13 10.02490 -84.12538 6155 ft 226 kts 94°
2026-05-01 14:13 10.02351 -84.11740 6364 ft 236 kts 110°
2026-05-01 14:14 10.01360 -84.10280 6684 ft 264 kts 134°
2026-05-01 14:14 9.99932 -84.09055 7185 ft 278 kts 141°
2026-05-01 14:14 9.98342 -84.07906 7922 ft 282 kts 143°
2026-05-01 14:14 9.96727 -84.06765 8701 ft 284 kts 142°
2026-05-01 14:15 9.95116 -84.05587 9432 ft 287 kts 141°
2026-05-01 14:15 9.93508 -84.04362 10117 ft 291 kts 140°
2026-05-01 14:15 9.91853 -84.03053 10328 ft 313 kts 139°
2026-05-01 14:15 9.90086 -84.01635 10518 ft 333 kts 139°
2026-05-01 14:16 9.88246 -84.00167 11033 ft 339 kts 140°
2026-05-01 14:16 9.86376 -83.98680 11626 ft 344 kts 140°
2026-05-01 14:16 9.84616 -83.97033 12231 ft 346 kts 128°
2026-05-01 14:16 9.83318 -83.94980 12835 ft 346 kts 112°
2026-05-01 14:17 9.82592 -83.92657 13462 ft 348 kts 99°
2026-05-01 14:17 9.82475 -83.90192 13990 ft 353 kts 85°
2026-05-01 14:17 9.82674 -83.87695 14498 ft 357 kts 85°
2026-05-01 14:17 9.82884 -83.85175 15058 ft 360 kts 85°
2026-05-01 14:18 9.83095 -83.82631 15547 ft 364 kts 85°
2026-05-01 14:18 9.83303 -83.80061 16061 ft 367 kts 85°
2026-05-01 14:18 9.83507 -83.77471 16596 ft 370 kts 86°
2026-05-01 14:18 9.83638 -83.75745 16917 ft 372 kts 86°
2026-05-01 14:19 9.83883 -83.72226 17606 ft 376 kts 87°
2026-05-01 14:19 9.84059 -83.69570 18125 ft 379 kts 86°
2026-05-01 14:19 9.84236 -83.66890 18563 ft 383 kts 87°
2026-05-01 14:19 9.84415 -83.64187 18989 ft 385 kts 86°
2026-05-01 14:20 9.84601 -83.61463 19368 ft 390 kts 85°
2026-05-01 14:20 9.85595 -83.55997 20137 ft 398 kts 78°
2026-05-01 14:20 9.86159 -83.53234 20533 ft 402 kts 78°
2026-05-01 14:21 9.86722 -83.50440 20894 ft 407 kts 78°
2026-05-01 14:21 9.87280 -83.47651 21279 ft 411 kts 78°
2026-05-01 14:21 9.87851 -83.44796 21640 ft 415 kts 78°
2026-05-01 14:22 9.89012 -83.39017 22472 ft 421 kts 78°
2026-05-01 14:22 9.89602 -83.36099 22874 ft 424 kts 78°
2026-05-01 14:22 9.90197 -83.33160 23252 ft 427 kts 78°
2026-05-01 14:22 9.90799 -83.30197 23597 ft 430 kts 78°
2026-05-01 14:23 9.91403 -83.27214 23896 ft 433 kts 78°
2026-05-01 14:23 9.92007 -83.24215 24191 ft 436 kts 78°
2026-05-01 14:23 9.92614 -83.21188 24509 ft 439 kts 78°
2026-05-01 14:23 9.93220 -83.18148 24817 ft 441 kts 78°
2026-05-01 14:24 9.93830 -83.15090 25117 ft 443 kts 78°
2026-05-01 14:24 9.94444 -83.12022 25417 ft 445 kts 78°
2026-05-01 14:24 9.95064 -83.08934 25711 ft 448 kts 78°
2026-05-01 14:24 9.95613 -83.05817 25984 ft 450 kts 84°
2026-05-01 14:25 9.95691 -83.02639 26256 ft 452 kts 94°
2026-05-01 14:25 9.95231 -82.99489 26519 ft 453 kts 105°
2026-05-01 14:25 9.94308 -82.96430 26785 ft 455 kts 109°